Theta_e
328 328 327 326 326 325 324 324 323 323 323 324 326 325 324 324 323 322 321 320 319 318 317 316 315 315 315 316 317 316 316 316 316 315 314 313 302 302 312 315 315 314 312 311 311 313 314 314 313 314 315 316
328 327 326 326 325 324 323 323 322 322 322 323 325 325 324 323 322 321 320 319 317 316 316 315 315 315 314 314 315 314 314 313 313 312 311 309 302 307 313 313 313 311 309 309 310 312 313 313 312 312 313 314
326 326 325 325 324 323 322 321 321 322 322 322 324 324 323 323 322 320 319 317 316 316 315 315 314 314 313 313 312 312 312 311 311 307 302 301 300 305 308 308 308 306 305 306 308 311 312 312 312 311 311 312
326 325 324 324 323 322 321 320 320 321 321 321 322 322 322 321 320 318 317 316 315 315 314 313 313 313 313 312 310 309 307 303 305 300 294 296 297 298 299 300 300 300 302 304 307 310 311 311 311 311 310 311
325 324 323 322 321 321 320 319 319 319 319 320 320 320 320 319 318 316 315 314 314 313 313 312 312 312 312 311 309 308 303 296 296 295 293 295 296 296 295 295 296 296 299 303 306 309 310 310 310 310 310 310
323 323 322 321 321 320 319 318 318 318 318 318 317 317 317 316 315 315 314 313 313 312 312 311 311 311 310 310 309 308 305 299 293 293 293 294 296 297 296 295 295 295 299 303 305 307 309 309 308 309 309 310
323 322 321 321 320 319 318 318 317 317 317 317 316 316 316 315 314 314 313 312 312 311 310 310 309 309 309 309 308 307 306 302 296 293 293 294 295 296 297 296 295 295 298 302 304 306 306 307 307 307 309 309
322 322 321 320 319 318 318 317 317 317 316 316 316 315 315 314 313 313 312 312 311 310 309 308 308 308 308 308 308 306 305 302 298 295 294 293 293 293 295 296 296 296 297 300 302 303 303 304 305 306 308 308
322 321 321 320 318 318 317 317 317 316 316 315 315 315 314 314 313 313 311 310 310 309 309 308 308 308 308 308 307 306 305 304 302 301 297 293 292 292 293 295 297 297 298 299 300 301 301 302 304 305 307 308
322 321 320 319 318 317 316 316 315 315 315 315 314 314 313 313 312 311 311 310 310 309 309 308 308 307 308 308 307 306 306 305 304 304 300 294 292 292 292 293 294 295 295 297 299 300 301 301 303 305 306 307
321 320 319 318 317 316 315 315 315 315 315 314 313 313 312 312 312 311 311 310 310 309 308 308 307 307 307 307 307 306 305 304 304 303 300 295 293 294 293 292 292 292 292 293 294 295 298 301 303 304 305 305
320 318 318 317 316 315 315 315 315 314 314 313 312 312 312 312 311 311 310 309 309 308 308 307 307 306 306 306 306 305 305 304 302 302 300 296 294 295 295 294 293 293 292 293 292 292 294 297 301 303 304 304
318 317 317 316 316 315 315 314 314 314 314 312 312 311 311 312 311 310 309 309 308 308 307 307 306 306 305 305 305 305 304 302 300 300 299 296 295 295 295 294 293 294 294 293 293 292 292 292 295 297 299 300
316 316 316 315 315 314 314 313 313 313 313 312 311 311 310 311 310 309 309 308 308 307 307 306 305 305 303 303 303 303 303 301 299 298 297 295 295 295 294 294 293 294 294 294 294 294 293 293 292 292 294 295
316 316 315 315 314 314 313 312 311 312 311 311 310 309 310 310 310 309 309 308 307 307 306 304 303 302 301 301 302 302 303 302 300 299 297 296 295 293 293 293 294 294 294 294 294 294 294 294 293 292 292 293
315 315 314 313 313 313 312 311 310 310 309 309 308 308 308 309 309 309 308 307 306 305 304 303 302 301 300 301 300 301 301 301 299 297 295 295 294 293 292 294 294 294 294 294 294 294 294 294 294 293 293 292
313 313 312 311 311 310 309 309 309 308 307 307 307 307 307 307 308 308 307 306 305 304 303 301 301 300 300 300 299 299 298 297 295 295 294 294 293 293 293 294 294 294 294 294 294 294 294 294 293 293 293 293
310 310 310 308 308 308 307 307 307 307 306 306 305 305 305 305 306 306 305 305 304 303 302 301 299 299 298 298 297 296 295 294 294 294 294 294 293 293 294 294 294 294 294 293 294 294 294 293 294 293 293 293
309 308 308 307 307 307 307 306 305 304 304 304 303 303 303 303 303 303 303 303 302 301 300 298 297 296 295 295 294 294 294 294 294 294 294 293 293 293 293 293 293 293 294 294 294 294 294 293 293 293 293 293
307 307 306 306 304 305 305 304 302 301 301 301 301 301 301 301 300 300 300 299 299 298 296 295 294 293 293 293 293 293 293 293 293 293 293 293 293 293 293 292 293 293 293 293 293 293 293 294 294 293 293 292
304 304 303 303 302 302 301 300 299 297 299 299 299 298 297 297 298 297 297 296 295 295 294 293 292 292 292 292 292 292 292 292 293 292 292 292 292 292 292 292 292 292 292 292 292 292 292 292 292 292 291 291
301 301 300 299 299 299 298 296 295 295 297 297 296 296 294 294 295 295 295 294 294 294 293 292 291 290 291 291 291 291 291 291 291 291 291 291 291 290 291 290 290 290 290 290 290 290 290 290 290 290 290 290
298 298 297 296 295 295 294 292 291 292 293 294 294 293 292 292 292 293 293 293 293 293 292 291 290 290 290 290 290 290 290 290 289 290 290 290 289 289 289 289 289 289 289 289 290 289 289 289 289 290 290 291
294 294 294 293 293 292 290 289 289 289 289 289 290 290 290 290 289 290 291 291 291 291 291 290 290 289 289 289 289 289 289 288 288 288 289 289 289 288 288 288 288 289 289 289 289 290 290 290 290 290 290 290
292 292 292 291 290 288 287 287 288 287 287 287 287 288 288 288 288 288 289 289 289 289 289 288 288 288 287 287 288 288 287 287 287 287 287 287 288 288 288 288 287 288 289 289 289 290 290 290 290 290 291 290
291 290 291 290 287 285 285 285 286 285 284 285 285 286 286 286 286 287 287 287 287 287 287 286 286 286 286 286 286 286 285 285 286 286 286 287 286 286 286 286 286 287 288 288 287 288 289 290 290 290 290 290
289 288 288 288 285 284 284 282 283 282 282 282 283 283 284 284 284 285 285 285 285 285 285 284 284 284 284 285 285 285 284 285 285 285 285 285 285 285 285 284 284 285 286 286 286 287 290 290 290 292 290 288
286 286 286 285 284 284 282 280 280 280 280 281 280 280 281 282 282 282 282 282 282 283 282 282 282 282 283 283 283 283 283 283 283 283 283 283 284 284 283 282 282 282 283 284 285 287 289 286 288 294 288 284
285 285 284 283 282 282 281 279 279 279 278 278 278 278 278 278 279 280 280 280 280 281 280 280 280 281 281 281 281 282 281 281 280 280 281 281 282 282 281 280 280 280 281 281 282 283 285 286 290 291 283 282
284 284 283 282 281 280 279 278 277 276 275 275 275 275 275 276 277 278 278 278 278 279 279 279 279 279 279 279 279 279 279 279 278 278 278 278 279 279 279 279 279 278 278 279 279 278 279 282 284 282 280 283
282 281 281 280 279 278 277 276 274 274 273 273 273 273 274 274 275 276 276 276 276 276 277 277 277 277 278 277 277 277 277 277 276 276 276 276 277 277 277 278 278 276 277 277 277 276 276 277 277 277 278 280
Wind_Speed
26 25 23 21 22 21 20 19 19 19 20 19 17 17 17 18 18 16 14 13 11 11 10 11 12 12 12 10 7 5 4 4 5 5 5 7 7 7 10 11 11 10 10 9 9 11 12 13 15 14 13 13
25 23 22 22 21 19 18 17 17 18 20 20 19 19 19 19 17 15 13 12 11 11 11 11 11 11 10 8 6 4 2 2 3 3 3 4 5 9 11 10 9 9 9 8 9 10 11 11 13 13 13 13
25 24 23 22 19 18 17 16 17 18 20 20 20 20 20 19 17 15 13 12 12 11 11 11 10 9 9 8 5 3 2 2 3 3 4 5 7 10 10 9 8 8 9 8 9 10 9 10 10 11 12 12
28 26 23 21 19 18 17 17 18 19 19 19 20 20 19 18 16 15 14 13 13 12 11 11 10 9 9 8 6 5 4 5 5 5 7 8 9 9 9 8 8 8 9 9 9 9 8 8 9 10 11 11
29 26 23 21 20 19 18 19 19 19 19 19 19 19 18 17 16 15 14 14 14 13 12 12 11 9 9 8 7 6 6 7 7 7 7 8 9 9 9 8 8 9 9 9 9 9 7 6 7 9 9 9
28 26 24 22 21 20 19 19 19 19 19 19 19 18 17 16 16 15 15 15 14 13 12 11 10 9 9 8 7 6 5 6 6 7 7 7 7 8 8 8 8 9 9 9 8 7 6 5 6 7 7 8
29 26 25 24 22 21 20 19 18 18 18 18 18 17 16 16 16 16 16 14 13 13 13 12 11 10 9 8 6 5 5 5 6 7 7 6 6 6 6 6 7 8 8 8 7 6 5 4 5 5 6 7
29 28 26 25 23 23 21 20 18 17 17 17 17 17 17 17 17 17 16 15 14 14 14 13 12 11 10 9 7 6 6 7 7 8 8 7 7 7 6 5 6 6 6 6 5 4 4 3 4 4 4 5
30 29 28 26 24 23 22 20 18 17 17 18 18 19 19 18 18 17 17 16 15 14 14 13 13 12 11 9 9 8 8 8 7 7 7 7 7 7 6 5 5 5 5 5 4 3 3 3 3 3 2 3
32 30 28 27 26 24 23 22 21 19 19 19 19 19 19 20 20 19 18 16 15 15 14 13 13 13 11 10 10 9 8 8 7 6 7 6 6 7 7 6 5 4 4 3 3 2 2 3 3 2 1 1
33 32 31 29 28 26 26 25 24 22 21 21 20 19 20 20 20 19 18 17 16 15 14 14 14 13 13 12 10 9 7 7 6 6 7 6 6 7 7 6 5 4 4 4 4 3 2 3 3 2 1 1
33 32 32 31 29 27 27 26 26 25 23 22 21 22 21 19 19 19 19 18 16 15 13 13 13 12 12 12 10 9 7 6 5 5 5 5 5 6 6 6 6 5 4 4 4 4 3 2 2 2 2 2
34 32 32 32 30 28 27 27 27 26 24 23 24 24 22 20 20 20 20 18 17 15 13 13 12 10 10 10 9 7 7 6 6 5 4 4 4 5 5 6 5 5 4 4 4 5 4 2 0 1 2 2
34 33 32 31 31 29 28 28 28 27 26 26 26 24 23 23 22 21 19 18 16 14 13 11 10 9 9 8 8 6 6 6 5 4 4 3 3 3 4 4 5 4 4 4 4 4 4 3 2 1 2 3
34 34 32 31 31 30 28 28 28 28 28 28 27 25 24 23 21 20 18 16 15 13 12 10 9 8 8 8 7 6 5 4 3 3 3 2 1 1 1 3 4 4 3 3 3 4 4 3 3 2 2 3
33 33 32 31 31 31 29 28 28 29 29 28 27 25 24 23 21 19 16 15 13 12 11 10 9 8 7 7 6 5 4 3 2 2 3 3 2 2 2 2 4 4 3 3 3 3 3 3 3 3 4 5
32 32 31 30 31 31 30 29 29 29 29 28 26 24 23 22 20 18 16 14 13 12 11 10 9 8 7 6 5 4 3 4 4 4 4 4 4 3 3 3 3 2 1 2 2 1 1 2 3 4 5 6
31 32 31 30 31 31 30 29 29 29 28 27 25 24 23 21 20 18 16 14 13 13 12 11 10 8 7 6 5 4 4 5 5 5 4 5 4 4 4 4 3 2 2 1 1 1 1 2 3 4 5 5
32 32 32 31 31 31 29 28 28 28 28 27 26 24 23 22 20 19 17 15 14 14 12 12 11 10 8 6 5 5 5 5 5 4 4 4 4 3 3 3 2 1 1 1 1 2 3 4 5 5 6 7
33 32 32 31 31 31 29 29 28 27 27 27 25 24 23 22 21 20 19 17 15 15 14 13 13 12 9 7 6 6 6 5 5 4 3 3 2 1 1 1 0 1 2 3 4 4 5 6 7 7 8 9
33 33 32 32 32 31 30 29 28 27 27 27 25 24 23 21 20 20 18 17 15 15 15 13 13 13 10 8 6 6 6 5 5 4 3 2 2 1 1 2 3 4 5 6 7 7 7 8 9 10 10 11
34 33 33 32 32 31 31 30 29 27 27 26 25 24 23 21 20 19 17 16 14 14 14 13 13 12 11 8 6 5 5 5 5 4 3 3 3 3 3 4 5 6 7 8 9 9 9 9 9 10 10 9
34 34 33 32 31 31 30 29 28 28 27 27 26 25 23 22 21 20 18 16 15 14 14 13 12 12 10 8 7 5 5 5 5 5 4 4 4 4 5 6 6 7 8 9 9 10 9 9 8 7 6 6
33 34 34 33 31 31 29 28 28 28 28 27 27 26 24 23 23 21 19 17 16 16 15 14 13 12 10 9 7 6 6 7 6 6 5 5 5 4 4 6 8 8 8 8 8 8 7 6 5 3 3 3
30 31 33 32 31 31 29 28 27 28 27 26 26 26 24 23 23 22 20 18 16 16 15 15 14 13 12 10 8 8 9 9 8 7 6 6 6 5 5 8 12 11 8 8 8 8 5 5 3 2 4 6
27 27 29 30 31 32 31 29 28 28 27 26 26 25 24 23 22 21 20 18 16 16 15 15 15 14 13 12 11 12 12 11 10 9 8 6 7 8 10 13 15 14 10 8 8 7 6 7 4 3 3 4
26 27 28 30 32 32 31 31 30 30 29 27 26 26 25 24 22 21 21 19 17 16 16 16 16 16 15 14 13 13 13 12 12 12 11 9 9 10 11 14 16 16 15 12 6 3 4 5 3 2 2 3
27 29 29 31 32 32 33 33 31 31 29 27 27 27 26 25 24 22 22 21 19 18 18 18 18 17 16 16 15 14 14 14 14 14 14 13 11 11 12 14 16 17 17 15 10 3 1 2 2 2 5 12
28 30 31 32 32 32 33 32 30 29 29 27 28 28 27 26 25 24 23 22 21 20 20 20 19 18 18 17 16 15 16 17 17 16 15 15 13 14 14 14 15 16 17 19 16 10 4 2 2 1 5 13
27 28 28 29 29 28 30 29 27 26 27 27 28 28 27 26 25 25 24 23 22 21 21 20 20 19 18 18 18 17 17 17 17 16 16 15 14 15 15 12 13 16 16 17 18 17 12 7 3 1 5 6
23 25 25 25 26 27 28 28 24 24 26 27 28 27 27 27 25 25 24 24 23 22 21 20 20 19 18 18 19 17 17 17 17 17 16 15 15 15 14 12 14 15 12 12 15 15 14 11 9 7 6 4
Wind_Direction
162 163 163 159 158 160 161 162 163 163 158 154 151 144 141 140 139 138 134 129 121 111 102 92 84 85 100 113 113 112 114 109 82 56 29 13 26 69 89 102 107 110 108 103 98 88 77 71 74 76 77 78
166 166 164 163 163 165 167 167 163 161 159 154 148 143 142 142 141 140 134 126 118 110 106 95 93 96 97 114 127 110 100 82 41 21 16 26 61 88 98 103 106 111 110 104 103 96 80 73 76 74 72 71
168 168 168 167 165 166 166 164 159 157 156 153 150 148 147 146 142 138 132 124 119 114 110 102 102 101 87 98 112 93 74 34 22 47 76 96 96 94 99 102 103 108 113 112 111 106 88 79 81 76 73 71
168 168 168 165 163 162 158 154 151 149 149 148 150 150 148 147 143 136 130 124 120 116 110 105 105 101 89 89 89 78 60 49 66 91 96 103 98 92 94 96 99 106 115 117 117 114 99 87 86 75 69 69
166 166 164 161 159 156 152 149 147 145 144 145 146 148 147 144 141 135 128 123 118 113 106 104 104 98 88 80 74 72 67 67 79 94 96 97 95 92 93 95 99 107 116 119 122 122 112 95 85 73 64 64
164 163 161 158 156 153 150 148 146 145 144 144 145 144 142 139 136 131 125 119 112 107 102 100 100 93 86 77 72 69 72 78 82 87 88 87 89 93 96 101 105 110 119 123 125 128 125 103 82 75 68 64
163 163 160 158 155 153 150 147 145 144 146 145 144 143 140 136 133 127 121 117 112 108 102 98 96 93 91 87 81 73 81 93 89 83 81 83 85 90 96 102 107 113 122 127 131 131 128 107 86 83 74 67
163 162 159 157 155 152 149 145 144 146 146 145 144 143 140 136 133 128 121 116 112 109 104 99 96 96 98 95 88 83 89 89 86 82 76 79 84 89 95 98 103 114 125 130 135 130 119 107 96 95 86 72
165 162 158 156 153 150 146 144 145 147 145 143 143 140 137 137 133 127 120 117 115 112 110 105 100 99 98 97 90 82 81 74 68 65 62 71 86 89 92 98 101 107 118 123 124 108 102 114 117 115 105 76
165 163 159 155 152 148 146 147 147 147 145 142 141 138 137 136 131 127 125 125 124 121 120 114 109 106 104 106 100 87 76 70 57 46 53 67 82 86 87 93 96 96 94 95 97 76 95 131 140 141 143 100
163 161 158 154 151 149 149 150 149 148 147 144 141 140 140 138 134 133 133 133 131 129 127 121 114 111 110 111 106 96 87 79 67 53 52 56 68 80 81 82 84 87 79 75 82 81 120 159 160 161 191 251
161 157 155 153 153 151 151 152 150 150 148 145 144 143 145 144 141 140 139 137 135 135 133 127 124 119 115 113 106 103 100 89 80 67 50 49 66 75 70 66 66 65 66 67 69 75 97 160 183 194 221 251
157 155 154 155 155 151 151 150 148 151 151 148 147 146 147 148 145 144 143 139 138 141 138 133 135 130 122 119 116 115 114 100 88 76 57 59 72 69 59 57 56 47 47 51 53 63 67 70 156 231 249 258
152 153 154 155 155 150 148 145 145 150 152 151 150 148 148 148 147 147 146 142 142 144 138 134 138 133 128 125 121 123 122 111 100 91 84 86 80 60 46 54 66 57 48 52 48 47 43 35 19 324 288 281
152 154 155 153 152 151 147 143 143 146 148 149 148 146 148 149 150 150 148 146 145 145 139 137 138 132 130 126 119 121 127 128 123 116 118 123 113 27 39 67 82 83 83 82 62 46 36 30 17 344 317 305
153 154 153 149 148 147 146 144 143 141 141 143 142 143 146 147 151 152 150 147 146 145 143 141 139 134 131 127 125 130 142 160 171 158 142 139 144 142 132 109 100 96 94 92 76 58 38 13 357 343 335 328
149 149 148 145 144 142 141 142 141 139 138 139 139 141 142 143 147 150 149 147 145 145 144 141 140 138 132 129 135 143 155 174 177 166 145 134 136 134 137 137 124 120 121 112 94 48 12 355 341 337 336 330
145 145 144 142 141 141 140 139 139 138 138 138 138 139 139 139 141 144 145 146 146 145 145 143 142 142 139 136 143 150 153 161 161 157 144 135 136 132 135 139 137 153 169 151 164 250 294 311 308 311 312 309
146 144 145 143 140 142 144 140 138 137 137 138 138 137 137 138 138 139 142 144 148 148 147 147 143 142 144 142 151 156 150 151 154 151 145 143 146 138 131 140 146 162 205 238 247 263 281 287 289 294 296 299
146 145 145 142 139 140 142 140 136 134 135 135 135 136 135 137 138 139 141 143 147 147 143 142 138 135 140 147 156 156 153 154 150 144 140 140 155 164 114 126 230 279 283 284 287 288 284 285 292 297 302 308
142 142 142 140 137 136 136 135 131 130 133 132 131 131 130 134 136 137 139 138 141 141 136 135 133 131 136 147 157 158 160 156 142 137 140 121 103 82 358 334 309 304 303 299 297 297 295 294 299 303 308 311
138 138 136 134 134 133 131 128 125 126 130 130 130 129 127 130 133 134 136 136 139 138 133 132 129 127 129 139 148 151 151 142 133 132 134 113 76 46 9 352 336 323 317 313 309 308 308 308 308 309 311 312
134 134 131 128 127 126 123 121 121 121 122 124 126 127 126 127 127 130 133 135 137 135 132 129 125 122 122 127 132 135 133 126 124 120 117 110 82 55 37 24 3 340 327 323 319 318 321 321 320 322 324 325
130 129 126 124 122 119 116 115 115 113 113 115 117 120 123 123 120 123 127 129 131 130 127 123 120 117 115 117 124 125 114 105 105 106 102 96 86 64 42 29 13 358 341 331 327 325 333 339 326 346 39 40
128 126 125 123 120 116 114 114 112 109 108 109 110 113 117 117 115 116 120 121 122 122 120 116 114 112 109 109 111 107 97 91 92 95 92 86 76 54 34 29 20 11 358 351 354 343 346 16 16 129 104 71
128 125 127 125 120 117 114 113 112 109 107 108 109 111 112 111 111 113 114 115 116 116 115 113 110 107 104 102 101 101 96 93 91 88 89 86 72 59 51 43 29 21 23 18 9 354 345 3 32 149 151 87
128 126 127 125 122 120 114 110 110 109 107 108 108 108 109 108 108 109 109 109 111 111 109 108 105 102 102 101 100 99 97 92 86 81 79 79 78 72 64 57 42 34 36 32 27 24 358 2 12 336 351 26
126 125 124 122 121 120 115 109 109 108 106 106 104 102 103 104 105 106 106 106 106 105 103 101 100 99 99 98 96 95 91 85 79 75 73 73 77 76 71 67 56 48 45 44 47 56 356 14 21 358 356 342
124 123 120 118 115 113 111 107 106 104 100 99 99 97 98 99 102 103 103 103 103 102 100 97 96 95 95 94 91 88 84 80 77 74 70 68 71 73 72 74 70 62 56 55 59 64 70 50 14 239 326 336
124 123 120 118 115 112 108 102 98 97 96 96 96 95 96 98 100 102 101 100 99 99 98 96 93 91 91 89 86 84 82 80 76 71 68 64 66 71 72 76 77 69 65 66 67 68 74 80 77 335 328 347
121 119 118 118 115 113 110 103 98 99 100 100 99 98 98 97 97 98 99 98 97 96 95 94 92 89 88 86 83 82 80 77 72 69 67 63 64 68 68 71 70 64 66 71 67 69 75 79 80 64 37 49